Temp
48 48 47 47 47 47 48 47 47 47 49 49 49 50 51 51 51 49 41 46 40 31 35 39 42 38 37 35 33 36 40 40 39 38 37 34 33 37 35 39 40 35 33 32 32 32 28 56 56 46 50 53 55 55
47 47 47 47 47 47 47 47 47 46 47 49 49 49 51 51 51 50 38 46 44 35 34 40 40 43 43 42 37 36 36 40 43 40 38 38 35 38 37 33 45 36 40 37 39 37 49 54 54 55 57 54 54 53
47 47 47 47 47 47 47 47 46 46 48 48 49 49 49 50 51 50 42 43 42 35 36 36 32 43 44 42 43 34 38 44 42 44 40 39 36 39 34 34 40 47 52 40 42 48 52 54 56 57 58 56 56 56
47 47 47 47 47 47 47 47 46 46 48 48 48 48 48 48 48 49 42 44 41 37 29 31 41 38 43 42 42 42 41 43 45 43 37 36 35 41 37 41 38 43 48 43 42 48 52 53 54 55 56 56 55 54
46 46 46 46 46 47 47 47 46 45 46 48 48 48 48 48 48 46 43 43 44 37 31 32 38 40 43 42 40 41 39 39 38 36 33 34 38 38 37 38 36 44 42 40 37 48 48 48 52 54 53 53 54 53
46 46 46 46 46 46 46 47 46 45 45 45 47 49 50 49 47 41 33 41 43 43 34 29 37 37 38 38 37 38 43 41 40 36 36 38 43 38 33 32 43 48 51 52 47 54 52 52 54 56 54 54 54 53
45 46 46 46 46 46 46 46 47 46 45 45 46 48 49 47 43 37 36 39 45 43 32 29 29 36 37 34 34 35 38 37 37 36 36 36 37 40 35 32 44 48 51 52 53 54 49 52 49 54 55 54 53 53
45 46 45 45 46 46 46 46 47 47 45 45 45 45 45 44 42 37 40 43 43 38 36 30 28 32 37 32 32 34 33 33 33 33 35 35 37 36 31 41 48 50 50 50 50 52 51 52 52 52 53 52 50 48
45 45 45 45 45 45 46 46 46 47 46 46 46 46 42 38 34 35 43 43 41 37 31 31 27 26 36 32 33 33 34 30 35 32 33 34 32 30 38 43 46 48 46 47 49 51 51 49 49 49 49 48 46 45
45 45 45 45 45 45 45 46 46 47 47 46 42 39 31 38 45 43 36 33 33 33 34 31 34 29 35 32 32 31 32 30 28 30 34 29 29 42 46 48 47 47 48 48 42 40 43 43 44 46 47 47 47 47
45 45 45 45 45 45 45 45 46 47 47 40 35 34 40 46 38 34 31 30 32 30 33 33 33 31 36 31 30 33 29 30 26 28 28 28 29 38 45 43 44 45 46 46 46 44 45 44 44 44 45 47 46 46
45 45 45 45 45 45 45 45 46 42 40 40 37 43 42 37 32 32 29 33 30 28 32 31 32 33 33 38 31 33 29 30 25 31 27 25 29 39 40 40 40 41 42 42 42 40 39 40 41 42 41 43 40 37
45 45 45 45 45 45 45 45 45 46 45 42 38 38 33 33 20 26 22 28 26 31 32 31 30 32 34 36 31 31 27 25 31 22 24 28 37 39 39 39 38 39 39 38 37 37 37 35 33 36 33 33 34 33
44 45 45 45 45 45 45 45 45 44 40 34 32 20 24 21 24 26 27 28 30 32 33 31 30 30 30 28 29 24 27 28 20 18 25 26 36 36 37 37 37 35 34 35 34 33 31 30 29 31 32 33 33 34
44 44 45 45 44 45 44 45 45 42 40 31 30 18 24 28 29 29 28 29 32 35 32 31 31 31 28 25 29 27 22 20 24 20 25 31 36 35 34 34 31 33 32 30 31 31 31 31 31 30 31 33 34 33
44 44 43 44 44 44 44 45 45 44 38 31 31 29 27 24 23 25 26 27 35 30 30 30 28 25 27 28 27 23 25 21 24 26 30 34 33 32 31 31 29 29 31 32 32 31 32 32 31 31 32 32 33 33
43 42 45 44 43 43 46 42 43 40 33 32 26 32 31 27 27 31 30 31 37 29 24 27 25 27 27 25 26 28 20 27 30 30 29 32 31 30 30 30 30 30 30 30 31 31 32 32 32 32 31 32 33 33
39 41 44 43 43 42 45 43 38 37 31 29 25 26 32 34 31 33 32 34 33 29 30 28 30 28 19 18 18 23 28 30 32 34 29 31 31 31 32 31 33 32 33 33 33 33 32 32 32 32 32 33 32 32
39 40 43 43 42 36 35 37 38 30 29 29 29 31 29 28 31 33 33 35 37 39 34 30 29 26 25 27 26 26 27 27 33 33 29 32 34 33 33 33 33 33 33 33 33 32 32 33 33 33 33 33 31 32
42 43 43 43 42 36 33 33 40 33 29 30 32 30 30 28 32 29 30 33 35 33 29 27 27 27 28 30 33 33 32 34 33 31 31 32 33 33 32 32 33 33 33 33 32 30 33 33 34 34 34 33 32 31
40 42 42 41 39 38 35 31 30 31 32 29 32 30 28 31 28 27 28 34 30 28 27 29 28 29 34 33 35 35 34 34 34 32 32 31 32 34 33 33 34 34 33 32 32 32 33 32 33 33 33 33 32 32
39 42 36 39 34 33 30 36 31 31 30 30 30 31 27 23 24 27 32 27 27 28 30 29 31 33 33 36 33 38 37 37 35 33 33 34 32 32 32 33 33 32 32 33 33 33 33 33 33 31 29 26 31 31
40 38 34 34 29 27 23 36 29 31 25 27 29 27 26 25 28 34 27 30 29 30 34 36 39 41 36 39 39 38 39 36 35 34 33 34 32 31 32 33 34 33 33 33 35 34 32 34 32 32 28 27 28 28
38 31 24 25 28 21 30 24 31 30 29 27 27 25 27 26 30 26 25 30 29 31 33 34 34 33 34 35 34 35 36 37 34 35 36 34 33 32 33 33 33 33 33 34 35 34 33 32 33 32 28 26 31 31
21 20 22 16 26 22 21 24 26 27 20 24 24 23 24 29 21 22 25 27 28 29 30 32 31 31 28 29 31 33 37 36 34 33 36 36 35 33 32 33 33 34 34 32 33 33 32 33 33 32 32 32 31 30
15 22 20 22 22 21 24 17 18 19 23 19 23 28 27 23 20 19 26 27 27 27 28 28 28 30 31 32 33 34 35 37 36 33 34 37 36 35 34 33 32 31 32 34 33 33 31 29 32 31 31 31 31 31
14 20 27 31 29 29 22 24 29 24 17 15 21 18 19 10 13 24 27 28 28 29 31 31 30 29 29 30 32 33 33 35 36 36 37 37 36 36 37 34 32 33 33 35 34 34 32 28 28 31 31 32 31 32
21 26 19 23 23 27 17 18 17 16 21 27 23 13 13 15 18 25 25 28 29 31 31 32 31 31 28 30 30 30 32 32 32 33 34 33 32 32 33 33 34 33 34 34 34 33 34 33 33 32 32 31 31 32
21 25 23 16 17 20 18 17 19 24 27 24 15 17 21 26 27 27 28 27 27 26 22 26 28 24 23 25 25 28 30 31 31 30 31 29 27 27 31 32 32 33 33 33 32 33 33 32 31 32 32 31 31 32
19 24 18 14 13 14 18 22 21 23 24 24 23 23 22 20 21 24 24 23 20 18 19 19 19 18 20 26 20 21 29 32 32 31 30 31 30 31 33 33 33 32 32 32 31 30 30 27 22 19 19 21 29 28
21 19 18 18 16 19 20 21 21 22 19 16 17 13 13 14 18 22 20 20 19 18 17 15 15 16 16 24 26 20 21 30 32 32 30 31 32 32 32 33 33 33 32 31 29 26 22 18 19 18 18 17 21 19
17 17 15 13 16 19 21 18 17 15 16 15 14 15 16 17 13 16 24 21 18 16 15 15 12 13 15 17 18 23 25 28 29 31 31 31 33 33 32 32 32 33 32 31 31 30 27 22 21 21 22 26 27 28
16 16 16 15 15 16 17 15 14 13 13 12 12 12 12 13 9 15 20 17 17 14 15 15 16 16 18 17 14 17 23 25 26 29 31 32 32 32 32 31 31 31 30 29 29 29 29 24 20 19 26 28 27 26
MSLP
1002.24 1001.55 1000.69 999.88 998.89 997.86 996.73 995.56 994.61 993.60 992.71 992.72 993.29 994.08 994.70 995.56 996.40 997.42 998.19 998.55 999.39 1000.18 1000.39 1000.33 1000.24 1000.68 1001.26 1001.71 1001.52 1000.53 999.23 998.42 998.02 998.63 999.39 1000.05 1000.78 1000.66 1000.89 1000.17 1000.32 1001.63 1002.24 1002.79 1003.27 1002.67 1001.26 998.80 998.71 999.33 1000.06 999.93 1000.08 1000.56
1002.31 1001.70 1000.87 1000.00 999.16 998.15 997.11 996.02 994.80 993.84 992.92 993.13 993.76 994.40 994.90 995.61 996.45 997.62 998.59 998.83 999.50 1000.47 1001.24 1001.22 1001.00 1000.82 1000.91 1001.27 1001.97 1001.67 1000.08 999.63 998.16 997.67 998.47 999.64 1000.28 999.98 999.77 1000.05 999.59 1000.11 999.62 1001.26 1001.77 1001.05 999.53 998.55 998.34 998.69 998.91 999.77 1000.40 1000.75
1002.43 1001.80 1001.12 1000.24 999.36 998.34 997.39 996.35 995.11 993.53 993.19 993.65 994.19 994.71 995.14 995.79 996.57 997.55 998.36 999.05 999.95 1001.00 1001.34 1001.33 1001.13 1001.00 1001.40 1001.65 1001.81 1002.13 1001.25 999.98 998.64 998.05 997.90 999.00 999.44 999.19 998.88 998.59 998.59 998.84 998.59 999.81 1000.44 999.78 999.15 998.62 998.56 998.77 998.95 999.72 1000.47 1001.09
1002.59 1001.94 1001.29 1000.53 999.70 998.78 997.85 996.98 996.08 994.70 994.14 994.38 994.77 995.25 995.72 996.09 996.93 998.08 998.68 999.10 999.94 1000.88 1001.24 1000.36 1000.60 1000.97 1000.85 1001.57 1001.42 1001.00 1000.39 1000.37 999.34 998.30 998.07 998.40 998.74 998.49 998.15 997.29 997.61 997.48 998.28 998.59 998.74 998.65 998.75 998.57 998.47 999.18 999.78 1000.31 1001.10 1001.84
1002.77 1002.19 1001.41 1000.81 1000.07 999.31 998.48 997.60 997.03 996.21 995.57 995.26 995.35 995.71 996.18 996.82 997.56 998.62 999.21 999.62 999.55 1000.20 1000.48 1000.10 1000.06 1000.21 1000.48 1000.66 1000.89 1000.28 1000.53 1000.51 1000.06 999.13 999.12 998.90 998.69 998.80 998.61 997.92 997.29 996.48 996.94 997.45 997.42 997.24 997.77 998.87 999.01 999.46 1000.02 1000.76 1001.55 1002.24
1002.93 1002.41 1001.77 1001.03 1000.35 999.66 999.02 998.28 997.73 997.03 996.42 996.25 995.79 995.91 996.38 996.92 998.08 998.92 999.74 999.92 999.59 999.92 1000.78 1000.61 1000.03 999.67 1000.12 1000.17 1000.15 999.39 999.23 999.16 999.21 999.00 998.60 998.14 997.99 998.51 998.83 998.08 997.02 996.28 996.18 995.76 996.10 996.66 997.38 998.67 999.30 999.51 1000.10 1000.84 1001.64 1002.49
1003.11 1002.60 1002.08 1001.36 1000.66 999.99 999.47 998.85 998.24 997.97 997.40 996.91 996.84 996.36 996.59 997.36 998.29 998.97 999.35 999.29 999.46 999.99 1000.16 1000.29 1000.05 1000.05 1000.08 999.63 999.20 999.28 998.37 998.40 998.06 998.18 998.04 998.03 998.63 998.55 998.54 997.91 996.84 996.44 996.17 996.03 996.43 996.71 998.23 998.32 999.28 999.91 1000.54 1001.22 1001.99 1002.84
1003.20 1002.72 1002.36 1001.81 1000.95 1000.27 999.66 999.22 998.72 998.45 998.23 997.78 997.85 997.81 997.87 998.21 998.95 999.29 999.45 999.25 999.19 999.71 1000.01 999.83 999.60 999.93 999.65 999.49 999.55 999.53 998.52 998.69 997.96 998.14 998.33 998.23 998.44 998.63 998.05 996.94 996.28 996.36 996.51 996.50 996.74 997.03 997.69 998.69 999.61 1000.65 1001.46 1001.84 1002.84 1003.71
1003.51 1002.93 1002.42 1001.96 1001.31 1000.34 999.70 999.06 998.73 998.37 998.34 998.37 998.05 998.19 998.76 999.09 999.38 999.47 999.54 999.44 999.45 999.77 999.44 999.28 999.11 999.03 998.94 998.64 998.98 998.92 998.53 998.41 998.53 998.36 998.28 998.53 998.56 997.93 996.71 996.34 996.32 996.60 997.11 997.64 997.23 997.88 999.16 999.92 1000.46 1001.02 1001.48 1002.68 1003.70 1004.64
1003.75 1003.14 1002.48 1001.87 1001.34 1000.64 999.62 998.98 998.20 997.82 998.06 998.50 998.67 998.36 999.01 998.99 999.17 999.63 999.80 999.67 999.45 999.29 999.03 998.54 998.30 998.36 998.53 998.50 998.52 999.09 999.16 998.91 999.24 998.83 998.26 998.71 998.24 997.20 996.62 996.80 996.94 997.27 997.93 997.87 998.16 999.50 1000.13 1000.77 1001.23 1001.94 1002.65 1003.26 1004.01 1004.67
1003.73 1003.18 1002.60 1001.95 1001.34 1000.70 999.89 999.02 998.35 998.29 998.43 998.51 998.36 998.08 998.39 998.66 999.15 999.47 999.30 999.06 998.84 998.69 998.65 998.37 998.18 998.27 998.68 998.57 998.74 998.82 998.98 998.89 998.75 998.77 998.44 998.89 998.24 997.37 996.88 997.41 997.61 997.91 998.23 998.70 999.54 1000.17 1000.84 1001.45 1002.30 1003.04 1003.76 1004.29 1004.75 1005.27
1003.71 1003.09 1002.51 1001.92 1001.25 1000.63 999.96 999.20 998.73 998.27 997.99 998.16 998.37 997.78 998.45 998.70 998.68 998.55 998.47 998.24 998.50 998.19 998.18 998.13 998.30 998.46 998.67 998.53 998.88 998.97 998.64 998.41 998.64 998.64 998.58 998.70 998.44 997.55 997.04 998.03 998.54 999.05 999.65 1000.28 1001.10 1001.89 1002.47 1002.99 1003.63 1004.16 1004.77 1005.09 1005.66 1006.50
1003.50 1002.95 1002.35 1001.73 1001.11 1000.46 999.71 999.04 998.45 998.22 997.40 997.48 997.96 997.79 997.82 998.18 998.56 998.57 998.47 998.00 998.06 998.05 998.29 998.48 998.63 998.73 998.76 998.45 998.63 998.43 998.75 998.95 998.33 998.30 998.61 997.95 997.61 998.24 999.02 999.67 999.86 1000.28 1001.04 1001.92 1002.98 1003.68 1004.07 1004.46 1005.00 1005.29 1005.92 1006.40 1006.70 1007.50
1003.17 1002.61 1002.08 1001.51 1000.94 1000.20 999.44 998.66 998.02 997.82 997.75 997.54 997.85 998.55 998.82 999.28 999.84 999.97 999.71 999.16 998.56 998.29 998.40 998.27 998.42 998.44 998.45 998.40 998.26 998.56 998.98 998.75 998.71 998.68 998.43 998.40 998.61 999.24 999.77 999.97 1000.61 1001.90 1002.93 1003.73 1004.27 1004.59 1004.95 1005.53 1006.27 1006.65 1007.09 1007.38 1007.82 1008.44
1002.84 1002.18 1001.60 1001.25 1000.69 999.84 999.08 998.29 997.58 997.54 997.33 997.93 998.50 999.10 999.65 1000.04 1000.16 1000.13 999.98 999.59 998.62 998.19 998.40 998.13 997.93 997.87 998.22 998.65 998.69 999.23 999.43 999.23 999.00 998.76 998.79 998.77 999.09 999.72 1000.55 1001.51 1002.51 1003.25 1003.91 1004.40 1004.66 1005.14 1005.78 1006.32 1006.78 1007.38 1007.74 1008.01 1008.36 1008.72
1002.60 1001.61 1001.58 1001.03 1000.31 999.53 998.67 997.93 996.88 996.98 997.41 998.38 999.25 999.64 999.68 1000.02 1000.04 999.92 999.54 999.00 998.42 998.50 998.31 998.22 998.29 998.61 998.66 998.90 999.06 999.26 999.33 999.23 999.04 998.90 999.07 999.60 1000.30 1001.05 1001.83 1002.46 1003.10 1003.51 1004.01 1004.69 1005.14 1005.73 1006.24 1006.62 1007.02 1007.38 1007.77 1008.11 1008.54 1008.99
1002.16 1001.95 1001.38 1000.88 1000.27 999.23 998.06 998.05 997.02 997.07 997.72 998.52 999.79 1000.07 1000.03 999.94 1000.00 999.98 999.57 999.20 998.53 998.69 998.81 998.71 998.83 998.83 998.77 999.15 999.35 999.13 999.57 999.67 999.63 999.90 999.99 1000.35 1000.94 1001.65 1002.45 1003.31 1003.87 1004.23 1004.49 1004.98 1005.49 1005.97 1006.38 1006.76 1007.12 1007.52 1007.85 1008.20 1008.57 1008.92
1002.36 1002.03 1001.55 1001.08 1000.62 999.44 997.96 997.51 997.58 997.42 998.07 998.83 999.50 999.97 999.77 1000.02 1000.17 999.86 999.45 999.10 998.77 998.76 998.73 999.04 998.82 998.89 999.00 999.29 999.47 999.87 1000.04 1000.09 1000.05 1000.49 1001.04 1001.46 1002.05 1002.62 1003.02 1003.43 1003.80 1004.04 1004.41 1004.95 1005.52 1006.10 1006.52 1006.89 1007.22 1007.56 1007.84 1008.16 1008.57 1009.11
1002.47 1001.95 1001.38 1001.04 1000.86 1000.62 999.13 998.27 998.18 998.14 998.42 998.72 999.02 999.25 999.49 999.74 999.53 999.33 999.26 999.09 998.79 998.59 998.72 998.84 998.96 998.89 998.83 998.86 999.15 999.36 999.81 999.79 1000.14 1000.75 1001.44 1001.82 1002.05 1002.29 1002.87 1003.23 1003.66 1004.06 1004.62 1005.23 1005.76 1006.28 1006.56 1006.72 1007.05 1007.53 1007.93 1008.32 1008.74 1009.28
1001.72 1001.20 1001.07 1000.47 1000.41 1000.08 999.19 998.72 998.34 998.39 998.40 998.51 998.75 999.11 999.19 999.43 999.48 999.55 999.54 999.26 998.94 998.81 998.91 999.01 998.88 998.84 998.64 998.61 998.52 998.83 999.23 999.77 1000.43 1001.01 1001.57 1002.01 1002.17 1002.45 1003.01 1003.47 1003.92 1004.31 1004.81 1005.28 1005.78 1006.12 1006.41 1006.73 1007.14 1007.58 1008.05 1008.46 1008.91 1009.46
1001.32 1000.85 1000.63 1000.21 999.60 999.62 999.32 998.82 998.48 998.45 998.49 998.63 998.54 998.82 999.14 999.24 999.54 999.82 999.88 999.42 999.49 999.46 999.16 998.77 998.87 998.58 998.26 998.31 998.39 998.68 999.17 999.64 1000.20 1000.74 1001.26 1001.96 1002.40 1002.68 1003.23 1003.62 1004.00 1004.44 1004.87 1005.28 1005.59 1005.94 1006.18 1006.69 1007.11 1007.51 1007.99 1008.60 1008.91 1009.38
1001.11 1001.00 1000.81 1000.22 1000.02 999.68 999.56 998.67 998.54 998.80 998.98 998.64 998.66 998.79 998.98 999.27 999.37 999.32 999.25 999.38 999.30 998.94 998.64 998.49 998.47 998.32 998.41 998.39 998.48 998.67 999.09 999.59 1000.06 1000.64 1001.06 1001.64 1002.31 1002.79 1003.21 1003.55 1003.91 1004.40 1004.78 1005.05 1005.45 1005.91 1006.29 1006.59 1007.01 1007.69 1008.27 1008.83 1009.06 1009.60
1001.17 1001.08 1000.80 1000.51 1000.36 999.95 999.45 998.47 998.70 998.62 998.81 998.62 998.42 998.58 998.55 998.76 998.58 998.44 999.02 998.82 998.57 998.05 998.04 998.10 998.03 997.71 998.03 998.22 998.46 998.82 999.17 999.74 1000.33 1000.86 1001.20 1001.62 1002.12 1002.52 1002.91 1003.32 1003.63 1004.07 1004.56 1004.84 1005.11 1005.55 1006.04 1006.49 1007.24 1007.79 1008.43 1008.93 1009.37 1009.82
1001.11 1001.15 1000.73 1000.36 1000.12 999.69 999.21 998.96 998.64 998.52 998.47 998.58 998.40 998.24 998.12 998.27 998.44 998.71 998.82 998.41 998.01 997.67 998.13 998.32 998.30 998.29 998.36 998.62 998.87 999.12 999.37 999.66 1000.23 1000.71 1001.08 1001.55 1002.04 1002.45 1002.67 1003.04 1003.43 1003.77 1004.05 1004.47 1004.91 1005.42 1005.90 1006.52 1007.11 1007.78 1008.42 1008.91 1009.24 1009.58
1001.48 1000.98 1000.79 1000.14 999.61 999.56 999.27 998.81 998.47 998.44 998.50 998.39 998.34 998.21 997.96 998.28 998.85 999.11 999.02 998.80 999.24 999.39 999.42 999.37 999.41 999.40 999.37 999.25 999.19 999.26 999.17 999.55 1000.10 1000.48 1000.90 1001.17 1001.56 1002.11 1002.57 1002.86 1003.22 1003.46 1003.79 1004.47 1005.10 1005.45 1005.95 1006.43 1006.94 1007.50 1008.10 1008.50 1008.83 1009.13
1001.01 1000.03 999.93 999.27 999.02 999.02 998.71 998.65 998.64 998.67 998.54 998.57 998.53 998.29 998.38 998.71 999.24 999.39 999.81 1000.39 1000.59 1000.66 1000.71 1000.79 1000.74 1000.48 1000.39 1000.44 1000.15 999.88 999.52 999.30 999.68 1000.17 1000.40 1000.70 1001.07 1001.52 1002.15 1002.69 1003.19 1003.70 1003.64 1003.98 1004.62 1005.27 1005.81 1006.24 1006.72 1007.21 1007.66 1008.03 1008.36 1008.64
1000.25 999.27 999.03 998.73 998.75 998.74 998.89 998.86 998.74 998.87 999.05 999.05 998.80 998.92 999.19 999.59 999.77 1000.48 1001.09 1001.43 1001.50 1001.66 1001.57 1001.49 1001.43 1001.45 1001.43 1001.26 1001.03 1000.72 1000.10 999.46 999.61 999.76 999.82 1000.14 1000.53 1000.92 1001.42 1002.05 1002.58 1003.08 1003.54 1004.13 1004.62 1005.07 1005.60 1005.96 1006.46 1006.90 1007.28 1007.64 1007.91 1008.17
999.49 998.55 998.79 999.05 999.28 999.28 999.50 999.39 999.34 999.35 999.18 999.12 999.34 999.60 999.78 999.99 1000.76 1001.31 1001.65 1002.00 1002.05 1002.05 1002.03 1001.92 1001.86 1001.88 1001.80 1001.73 1001.54 1001.32 1000.98 1000.68 1000.24 1000.11 1000.35 1000.71 1000.78 1000.83 1001.24 1001.74 1002.12 1002.60 1003.22 1003.92 1004.51 1005.00 1005.38 1005.74 1006.18 1006.58 1006.97 1007.32 1007.68 1007.94
999.26 998.87 999.13 999.65 1000.06 999.98 1000.00 999.93 999.86 999.73 999.91 999.96 1000.34 1000.46 1000.62 1001.05 1001.38 1001.52 1001.83 1001.91 1002.01 1002.36 1002.53 1002.46 1002.38 1002.33 1002.26 1001.95 1001.67 1001.49 1001.37 1001.31 1001.16 1000.72 1000.65 1001.05 1001.38 1001.62 1001.46 1001.77 1002.21 1002.65 1003.19 1003.74 1004.39 1004.86 1005.26 1005.63 1006.02 1006.45 1006.89 1007.21 1007.45 1007.71
999.43 999.34 999.86 1000.36 1000.46 1000.47 1000.37 1000.19 1000.46 1000.71 1000.77 1001.03 1001.26 1001.37 1001.45 1001.57 1001.56 1001.48 1002.00 1002.11 1002.36 1002.72 1002.59 1002.72 1002.82 1002.88 1002.95 1002.85 1002.61 1002.02 1001.53 1001.33 1001.25 1001.26 1001.08 1000.95 1001.04 1001.10 1001.16 1001.60 1002.18 1002.63 1003.15 1003.66 1004.38 1005.01 1005.52 1006.00 1006.41 1006.81 1007.06 1007.17 1007.42 1007.79
999.85 999.98 1000.30 1000.51 1000.72 1000.73 1000.79 1000.91 1001.02 1001.19 1001.39 1001.74 1001.86 1002.31 1002.42 1002.33 1001.93 1001.50 1001.73 1001.95 1002.11 1002.33 1002.61 1003.12 1003.07 1003.11 1003.10 1002.94 1002.74 1002.51 1001.96 1001.38 1001.10 1001.05 1001.06 1001.10 1001.19 1001.09 1001.07 1001.26 1001.57 1002.24 1002.90 1003.54 1004.23 1004.82 1005.33 1005.85 1006.32 1006.90 1007.27 1007.41 1007.49 1007.80
1000.58 1000.58 1000.87 1001.03 1001.15 1001.27 1001.13 1001.42 1001.56 1001.83 1001.92 1002.23 1002.48 1002.44 1002.58 1002.50 1002.77 1002.19 1002.64 1002.29 1002.28 1002.95 1002.98 1003.18 1003.41 1003.46 1003.16 1003.07 1003.01 1002.85 1002.62 1001.94 1001.29 1001.02 1000.87 1000.88 1000.84 1000.87 1001.02 1001.12 1001.41 1001.90 1002.50 1003.12 1003.76 1004.33 1004.94 1005.52 1006.19 1006.52 1006.72 1006.85 1006.96 1006.99
1001.36 1001.46 1001.53 1001.64 1001.63 1001.60 1001.96 1002.07 1002.18 1002.40 1002.60 1002.77 1002.78 1002.73 1002.73 1002.89 1003.14 1003.07 1003.25 1003.31 1003.55 1003.66 1004.01 1003.95 1003.88 1003.74 1003.51 1003.44 1003.29 1003.10 1002.76 1002.43 1001.84 1001.05 1000.71 1000.66 1000.53 1000.52 1000.77 1001.06 1001.33 1001.70 1002.25 1002.80 1003.39 1003.91 1004.40 1005.02 1005.67 1005.96 1006.02 1006.15 1006.51 1006.91
Wind_Speed
18 19 21 21 24 26 27 26 27 27 6 16 19 18 21 22 21 12 2 3 4 3 2 6 5 4 3 4 3 4 1 4 3 14 9 4 4 7 3 5 14 8 8 4 3 3 8 8 4 11 10 4 8 8
18 18 20 22 23 24 26 26 26 28 12 18 15 15 22 22 21 14 2 4 3 4 0 2 3 1 3 4 3 2 9 8 7 5 4 5 3 5 10 7 4 8 9 8 9 8 7 1 6 8 9 7 5 10
16 18 20 22 24 25 26 25 29 27 7 9 17 12 11 13 18 14 3 4 4 2 2 2 4 6 7 3 2 3 4 6 3 4 4 4 5 5 6 5 7 6 10 5 8 8 7 4 6 5 8 8 9 9
16 17 19 21 23 25 26 23 25 29 11 11 11 13 14 14 15 12 2 3 4 2 2 4 5 3 7 7 11 9 9 11 10 2 2 2 3 2 4 5 6 6 15 10 3 3 6 5 8 8 8 8 13 10
16 17 18 20 22 23 25 22 18 24 27 3 9 15 17 17 17 9 1 2 1 4 2 2 2 5 3 3 10 18 16 12 7 2 1 4 2 3 2 1 4 5 8 11 7 8 8 5 9 10 12 11 11 15
17 15 17 19 21 22 23 21 14 17 21 19 13 13 13 14 19 4 1 2 1 2 2 3 2 1 3 4 4 5 15 12 6 4 2 3 3 4 1 2 7 1 2 6 6 8 7 11 10 9 12 11 10 10
16 15 16 18 19 21 21 20 12 11 18 18 15 11 13 21 5 3 2 1 10 6 3 2 2 2 4 2 3 3 3 2 1 3 2 4 3 4 3 3 8 3 6 5 6 14 11 10 10 9 11 10 11 10
15 15 16 17 20 20 20 18 14 4 10 19 19 19 18 16 8 3 3 5 2 4 1 2 2 3 4 1 1 3 1 1 2 2 2 2 4 4 3 7 12 8 8 9 9 8 11 12 10 8 11 10 11 9
15 15 16 17 19 21 21 21 17 1 10 7 12 11 4 4 2 0 3 5 2 2 2 2 3 3 3 2 2 2 0 2 2 1 3 2 2 3 5 5 13 13 7 10 12 14 14 14 11 9 11 8 9 6
16 16 16 17 19 20 23 23 23 15 14 10 3 2 2 3 11 7 1 1 1 1 2 2 1 1 1 1 2 1 1 2 1 3 3 3 3 5 4 3 10 11 11 11 13 8 9 9 9 7 7 8 8 8
18 17 18 18 19 21 21 23 24 14 12 3 3 1 4 16 2 1 3 1 1 3 2 1 2 2 2 2 2 2 1 2 2 1 4 3 1 4 9 9 8 8 8 9 10 10 8 8 8 8 7 6 7 8
19 18 18 19 19 21 20 21 19 7 1 1 2 4 5 5 4 3 3 4 2 2 1 0 2 2 1 2 2 1 2 2 2 4 5 5 5 10 15 13 11 11 13 13 12 12 10 11 8 8 7 6 8 10
19 18 18 18 20 23 22 20 20 16 10 2 2 3 3 3 6 3 2 1 2 2 3 3 2 2 2 3 2 2 2 1 1 4 2 3 6 10 12 10 10 10 12 13 11 9 9 9 10 10 9 8 9 10
20 19 19 17 18 22 23 22 19 10 3 2 1 4 3 3 3 1 3 4 4 0 4 2 1 4 2 3 1 4 2 2 3 2 3 2 11 12 11 9 10 8 9 9 8 8 9 8 9 8 7 6 7 9
22 21 18 9 21 23 25 23 19 2 1 3 4 2 2 2 3 2 3 3 4 2 2 1 2 3 2 3 2 3 3 1 2 4 3 4 9 11 11 9 8 8 8 7 7 8 8 8 7 7 6 6 6 6
23 19 5 17 23 27 27 17 4 2 3 4 4 1 1 1 2 2 2 3 1 1 3 3 2 3 1 3 2 2 2 3 3 1 4 8 8 8 9 10 7 7 8 7 7 8 8 8 7 6 5 5 6 8
24 3 18 21 26 28 19 4 2 1 2 3 2 0 3 2 2 2 2 3 3 3 1 1 2 4 2 0 3 2 1 2 3 4 3 6 9 9 10 10 8 8 7 7 6 6 5 6 7 6 7 5 7 7
4 10 19 19 18 13 2 3 3 1 3 2 2 2 0 2 2 2 2 3 4 2 2 1 2 2 2 2 3 3 3 2 5 7 4 7 7 8 8 10 8 7 7 5 6 6 6 6 6 4 7 6 7 7
12 13 15 14 11 3 3 3 2 0 2 2 1 2 3 2 3 2 1 3 2 2 1 3 2 1 1 1 3 2 2 2 4 4 4 6 8 10 8 8 6 6 7 5 6 4 3 4 4 5 5 5 5 5
22 14 8 16 5 3 2 3 1 3 3 3 2 1 3 2 1 2 2 3 2 2 2 1 2 2 2 2 2 3 4 6 6 7 5 4 4 9 8 6 4 6 5 6 5 5 4 3 5 6 6 5 6 5
11 6 8 5 2 3 3 2 2 1 2 1 2 2 2 3 2 2 2 3 1 2 2 2 1 2 1 0 3 4 5 7 6 4 5 4 4 6 5 5 6 5 4 4 4 4 5 4 4 4 5 4 4 4
2 6 3 2 3 2 2 4 3 1 1 2 1 2 2 2 2 3 3 1 3 4 3 2 2 2 2 2 3 6 6 6 6 5 6 9 6 5 6 5 6 5 4 4 5 6 4 4 5 5 6 4 5 4
7 3 3 3 3 2 6 3 1 4 3 2 2 2 2 2 4 3 2 4 4 4 3 3 4 3 4 4 6 6 6 8 6 5 6 6 4 4 4 5 5 6 6 4 4 6 4 8 7 8 5 4 3 4
1 2 3 3 5 3 1 1 2 2 3 2 2 2 3 3 2 1 2 2 4 2 2 2 3 2 3 4 4 4 4 5 5 4 5 7 6 4 5 5 4 4 5 4 5 5 6 7 10 8 6 5 6 6
2 5 3 6 4 3 3 3 3 1 3 4 2 2 2 3 3 3 2 3 6 6 6 6 5 6 2 2 1 3 6 4 6 8 6 5 5 4 4 4 4 5 5 6 6 7 7 8 7 8 7 6 7 7
6 6 7 4 4 4 4 4 5 5 2 1 2 1 2 2 1 3 3 3 4 5 6 5 5 5 5 6 5 2 2 4 5 4 5 8 7 8 8 7 6 1 3 7 8 8 8 6 7 8 7 7 7 6
6 5 4 2 2 1 1 1 1 1 1 3 2 1 3 1 4 4 3 3 2 2 2 2 3 3 4 5 5 5 6 5 1 3 3 5 5 6 9 10 10 6 7 8 8 10 10 7 7 8 7 5 5 5
5 3 6 5 1 1 2 2 2 2 3 1 2 1 4 2 3 2 2 1 1 3 3 2 1 1 2 2 3 4 4 5 3 6 6 5 4 3 5 4 5 11 8 9 8 8 8 8 8 9 7 6 4 6
3 0 4 4 3 0 1 3 2 1 2 2 1 3 3 3 1 2 2 3 3 1 1 2 1 2 3 4 3 2 1 1 4 3 10 5 2 1 2 4 5 6 6 8 8 6 6 6 7 9 8 8 4 4
1 2 4 2 4 4 2 1 2 2 3 2 2 2 2 2 0 2 2 1 1 2 2 2 1 1 2 5 4 5 3 2 3 3 3 3 4 4 7 8 7 6 6 8 8 6 7 5 4 3 3 3 3 3
2 2 3 3 3 1 2 2 1 1 1 2 1 3 2 3 3 3 3 3 3 2 3 0 2 2 1 4 4 3 4 3 5 5 3 1 1 5 5 6 8 8 8 9 8 8 5 4 5 5 5 5 7 6
0 0 3 2 2 1 2 2 1 1 1 1 2 2 1 1 2 2 5 5 4 4 2 3 2 3 2 2 1 3 8 9 4 5 6 4 5 6 6 6 8 8 9 9 8 8 9 8 6 7 7 8 7 6
2 3 4 1 0 2 1 1 1 2 3 2 2 1 1 2 2 1 1 3 4 3 2 2 2 2 3 3 3 4 5 6 12 5 2 5 5 6 6 6 7 9 11 9 8 8 10 7 6 7 8 9 8 7
Wind_Direction
356 352 349 353 352 351 353 352 357 356 311 179 170 188 177 178 185 184 132 150 131 130 344 30 13 134 152 151 304 338 79 194 280 214 195 143 175 177 163 220 191 187 154 150 134 138 258 206 151 138 201 182 125 98
356 353 350 352 351 350 351 355 347 349 354 165 180 192 187 182 181 169 128 130 85 91 100 8 349 61 35 158 164 259 328 295 189 223 144 131 179 163 166 198 202 186 168 157 186 199 238 143 147 148 144 142 130 114
356 355 354 351 352 352 354 357 355 352 138 133 190 173 178 186 182 176 105 140 82 101 301 185 190 134 106 151 154 161 234 263 254 235 138 158 200 154 170 225 147 204 170 151 151 201 207 193 74 114 131 132 121 115
359 354 355 354 353 353 360 4 9 14 104 119 139 162 165 153 155 181 146 132 119 128 219 244 131 169 144 175 195 212 233 281 296 348 107 134 160 69 209 175 147 184 170 160 186 252 115 71 140 139 104 107 105 99
357 357 353 358 356 358 2 10 19 28 29 130 168 168 168 167 169 173 123 18 172 161 231 294 94 169 197 217 259 222 224 231 252 110 199 153 160 123 283 74 158 185 163 167 192 177 131 155 132 123 114 115 119 119
355 356 357 358 359 359 5 11 22 45 45 33 30 189 168 156 126 89 87 224 152 85 235 265 332 260 293 267 295 333 223 220 200 169 155 163 106 89 206 198 279 157 40 135 151 156 133 142 135 136 123 117 109 110
353 351 1 356 357 357 4 10 19 47 52 71 52 70 128 139 116 134 193 169 177 113 203 184 252 195 254 283 27 300 303 78 126 153 148 133 149 131 167 204 184 197 205 135 128 121 127 146 142 129 122 116 111 103
353 3 5 359 353 354 355 5 10 82 91 93 81 66 83 76 60 48 344 33 53 102 248 243 243 210 199 161 225 253 119 73 3 102 31 131 117 142 182 242 168 171 116 113 121 107 116 114 102 107 123 118 109 114
12 8 0 358 356 348 350 350 0 5 165 142 120 120 81 40 43 325 322 17 1 153 218 215 200 207 208 73 104 251 153 122 39 284 117 100 137 200 211 191 146 142 138 137 109 108 116 124 126 117 114 113 117 127
352 354 356 356 356 351 345 347 344 353 172 173 214 215 123 200 154 156 19 219 156 219 239 267 107 36 301 67 67 50 289 108 101 296 96 96 207 230 271 160 117 117 121 115 100 100 111 104 115 116 122 128 135 132
339 339 341 345 350 350 346 344 345 29 132 213 220 101 50 128 106 223 207 289 201 197 200 285 47 126 14 67 68 347 102 263 121 238 126 175 199 177 130 113 102 97 100 96 88 80 99 111 115 109 98 117 128 120
338 332 328 329 338 344 343 339 345 345 334 318 250 271 141 196 214 205 202 169 211 143 112 27 68 59 46 43 93 311 337 330 108 198 146 179 207 114 98 90 78 82 85 85 85 89 80 79 71 80 65 92 99 107
339 334 331 323 326 336 337 333 330 322 290 155 192 356 48 307 21 328 290 41 45 105 157 166 111 145 240 208 171 153 140 294 70 43 178 232 136 120 116 111 87 80 83 83 85 87 87 81 64 72 82 58 88 101
340 336 326 319 332 331 331 327 324 338 292 37 97 359 61 10 47 351 333 334 302 58 106 183 162 164 186 63 344 74 297 59 360 68 249 191 136 129 117 101 94 100 102 109 113 101 96 94 97 84 88 101 108 127
331 328 326 329 332 333 328 321 313 292 16 51 41 36 98 194 218 254 233 255 276 120 130 297 8 84 43 63 58 101 27 250 227 222 177 130 118 118 119 117 119 123 119 108 106 109 118 120 112 111 121 131 129 127
330 319 11 344 340 331 322 313 271 111 11 80 31 44 250 138 305 349 320 333 0 357 352 21 66 45 0 129 126 204 195 202 256 39 117 117 112 107 111 115 111 111 115 113 114 131 137 135 126 117 124 127 137 147
319 29 346 345 335 323 311 284 304 74 63 96 107 23 276 85 51 360 286 324 320 57 1 0 112 200 130 201 196 190 174 133 100 71 54 105 122 118 116 122 129 129 120 119 120 116 117 114 118 129 130 127 133 122
300 323 326 330 337 316 265 343 328 258 87 120 144 199 218 113 175 264 342 332 30 15 27 0 260 5 161 162 316 173 141 136 115 113 108 117 118 128 133 128 123 120 117 121 124 133 138 139 144 135 123 118 110 116
304 306 302 315 330 295 291 308 9 303 183 164 158 200 120 210 254 235 54 330 290 197 61 358 322 272 321 65 118 93 103 104 114 103 114 126 137 120 114 121 129 124 130 133 127 133 158 166 128 131 128 129 128 129
299 291 301 304 301 252 287 294 295 277 181 213 116 212 166 186 139 42 2 312 344 2 359 249 235 189 156 253 149 149 142 117 129 131 121 122 120 127 140 148 139 133 133 142 151 161 165 135 138 144 151 147 140 138
304 15 318 320 240 216 285 278 265 59 5 298 192 138 217 122 130 151 244 254 108 231 263 230 124 245 97 195 134 126 136 143 156 148 147 139 141 134 142 137 142 146 154 152 145 137 129 134 128 122 119 122 113 130
274 341 288 272 264 216 246 265 158 181 264 275 127 183 234 157 194 209 195 147 222 217 204 191 223 197 159 178 153 132 148 134 125 114 121 135 151 157 165 161 152 155 152 156 153 158 165 155 134 124 121 136 123 125
284 201 241 219 235 226 254 325 207 189 195 240 166 211 235 192 203 140 203 206 221 214 193 182 230 205 167 181 125 135 137 129 135 153 149 151 145 145 143 156 156 158 164 171 159 161 157 139 130 136 136 125 140 140
93 240 230 231 210 249 138 256 230 237 185 189 243 232 227 173 87 67 247 221 232 136 91 10 20 46 49 115 133 147 163 132 139 134 154 157 160 170 163 164 161 166 165 162 153 146 134 138 147 148 150 150 159 161
198 248 186 244 232 178 217 220 203 207 216 201 221 290 259 116 138 196 221 343 49 48 37 31 22 20 346 273 188 179 173 151 157 166 177 168 151 138 145 151 158 170 144 129 142 139 147 147 148 151 165 167 170 173
228 212 191 219 194 185 212 175 187 198 199 145 232 271 54 111 136 235 63 23 38 37 44 39 19 10 28 13 1 326 232 172 147 154 179 175 169 166 166 162 150 160 148 143 145 145 148 147 146 156 163 167 175 171
235 210 193 241 310 104 27 332 151 150 146 199 239 108 111 151 224 87 113 23 55 35 38 40 37 23 359 346 350 350 333 349 213 188 126 153 164 162 161 165 173 168 141 146 158 169 172 160 165 175 171 177 178 181
241 248 167 156 183 210 130 7 97 196 214 65 62 171 180 163 90 70 86 114 46 12 26 20 1 4 350 339 328 332 340 346 23 90 81 50 28 96 120 114 127 136 137 152 157 171 176 182 185 187 184 186 185 187
247 22 88 88 59 57 209 176 225 40 14 46 56 10 63 57 86 118 180 170 156 146 2 345 6 39 337 317 306 286 288 294 312 215 168 158 134 300 96 119 124 129 137 136 135 145 159 156 160 175 176 183 161 149
150 96 93 115 155 198 237 53 68 44 23 59 33 357 9 28 146 84 69 56 134 210 206 162 223 72 282 308 304 313 268 232 233 265 296 229 222 166 157 144 141 136 137 135 140 145 134 129 109 93 108 144 150 169
52 49 120 141 174 185 72 84 83 98 120 142 126 140 240 282 306 253 196 206 186 163 114 51 324 292 262 287 297 289 292 260 230 214 201 216 223 182 182 166 147 146 150 149 154 162 149 142 152 157 168 185 192 193
328 334 86 121 119 58 45 46 23 36 340 113 252 185 230 155 245 342 0 346 45 54 37 65 54 303 321 29 322 299 327 309 277 251 209 227 214 195 189 170 158 157 158 159 165 166 167 169 176 180 184 189 182 169
57 39 34 40 208 184 97 64 12 357 31 29 327 164 171 125 201 179 74 40 88 93 66 35 353 343 353 0 330 315 330 335 339 340 244 245 204 170 163 166 164 162 163 166 172 177 179 170 175 177 172 163 158 156